Location: Lane
(33.5226°N, 79.8788°W)
Time: 03:44:26
(UTC+00:00)

SR - Pass Details

Date: 26 September 2022
Orbit: 577 x 875 km, 66.7° (Epoch: 29 November)

Event Time Altitude Azimuth Distance (km) Brightness Sun altitude
Rises 14:27:01 0° 311° (NW) 3,236 ? 38.0°
Reaches altitude 10° 14:30:43 10° 286° (WNW) 2,232 ? 38.7°
Maximum altitude 14:33:04 13° 258° (WSW) 1,960 ? 39.1°
Drops below altitude 10° 14:35:22 10° 229° (SW) 2,131 ? 39.5°
Sets 14:38:45 0° 203° (SSW) 2,971 ? 40.0°
